Tracking 25709 objects as of 24-May-2022
HD Live streaming from Space Station
objects crossing your sky now

ARIANE 1 R/B

Track ARIANE 1 R/B now!
10-day predictions


NORAD ID: 16615
Int'l Code: 1986-019C
Perigee: 783.2 km
Apogee: 801.6 km
Inclination: 98.4 °
Period: 100.6 minutes
Semi major axis: 7163 km
RCS: 7.0687 m2 (large)
Launch date: February 22, 1986
Source: France (FR)
Launch site: FRENCH GUIANA (FRGUI)

Note: This is a ROCKET BODY
aabbcc
Your satellite tracking list
Your tracking list is empty




NASA's NSSDC Master Catalog

Two Line Element Set (TLE):
1 16615U 86019C   22144.17172956  .00000262  00000-0  11317-3 0  9990
2 16615  98.3798 200.5648 0012869 119.2700 305.9858 14.31940290897359
Source of the keplerian elements: AFSPC